• In Russia
  • List of Countries
  • For 7 days
  • Water Temperature
  • Satellite Maps
  • Weather Map
  • Weather Widgets
  • user-avatar
    Login

    Hourly Weather Kaprun

    Today, 21 February, Thursday

    Time Temperature Precipitation Wind Pressure Humidity
    00:00 -6°C° 0 mm 1 mps 598 mmHg 79%
    01:00 -6°C° 0 mm 1 mps 598 mmHg 78%
    02:00 -6°C° 0 mm 1 mps 598 mmHg 78%
    03:00 -6°C° 0 mm 1 mps 599 mmHg 77%
    04:00 -6°C° 0 mm 1 mps 599 mmHg 77%
    05:00 -6°C° 0 mm 1 mps 599 mmHg 77%
    06:00 -6°C° 0 mm 1 mps 599 mmHg 77%
    07:00 -4°C° 0 mm 1 mps 599 mmHg 77%
    08:00 -3°C° 0 mm 1 mps 600 mmHg 78%
    09:00 -1°C° 0 mm 1 mps 600 mmHg 80%
    10:00 0°C° 0 mm 1 mps 601 mmHg 82%
    11:00 +1°C° 0 mm 1 mps 601 mmHg 84%
    12:00 +1°C° 0 mm 1 mps 601 mmHg 87%
    13:00 +1°C° 0 mm 1 mps 601 mmHg 89%
    14:00 +1°C° 0 mm 1 mps 601 mmHg 90%
    15:00 +1°C° 0 mm 1 mps 600 mmHg 91%
    16:00 +1°C° 0 mm 1 mps 600 mmHg 92%
    17:00 0°C° 0 mm 1 mps 600 mmHg 91%
    18:00 -2°C° 0 mm 1 mps 600 mmHg 89%
    19:00 -3°C° 0 mm 1 mps 600 mmHg 88%
    20:00 -5°C° 0 mm 2 mps 599 mmHg 87%
    21:00 -6°C° 0 mm 2 mps 599 mmHg 86%
    22:00 -6°C° 0 mm 2 mps 599 mmHg 85%
    23:00 -6°C° 0 mm 2 mps 599 mmHg 87%

    Tomorrow, 22 February, Friday

    Time Temperature Precipitation Wind Pressure Humidity
    00:00 -6°C° 0 mm 2 mps 600 mmHg 89%
    01:00 -7°C° 0 mm 2 mps 600 mmHg 91%
    02:00 -6°C° 0 mm 2 mps 600 mmHg 91%
    03:00 -6°C° 0 mm 2 mps 600 mmHg 91%
    04:00 -6°C° 0 mm 2 mps 599 mmHg 91%
    05:00 -6°C° 0.2 mm 2 mps 600 mmHg 91%
    06:00 -5°C° 0.2 mm 2 mps 600 mmHg 91%
    07:00 -5°C° 0.2 mm 2 mps 600 mmHg 91%
    08:00 -5°C° 0.5 mm 3 mps 600 mmHg 91%
    09:00 -5°C° 0.5 mm 3 mps 601 mmHg 92%
    10:00 -4°C° 0.5 mm 3 mps 601 mmHg 92%
    11:00 -4°C° 0.6 mm 3 mps 601 mmHg 93%
    12:00 -4°C° 0.6 mm 3 mps 601 mmHg 93%
    13:00 -4°C° 0.6 mm 4 mps 601 mmHg 94%
    14:00 -4°C° 0.1 mm 3 mps 601 mmHg 94%
    15:00 -4°C° 0.1 mm 3 mps 601 mmHg 94%
    16:00 -4°C° 0.1 mm 3 mps 601 mmHg 94%
    17:00 -5°C° 0.1 mm 3 mps 601 mmHg 95%
    18:00 -6°C° 0.1 mm 3 mps 601 mmHg 96%
    19:00 -5°C° 0.1 mm 2 mps 602 mmHg 97%
    20:00 -6°C° 0 mm 2 mps 602 mmHg 96%
    21:00 -6°C° 0 mm 2 mps 602 mmHg 95%
    22:00 -7°C° 0 mm 2 mps 602 mmHg 94%
    23:00 -7°C° 0 mm 2 mps 602 mmHg 93%

    Day after tomorrow, 23 February, Saturday

    Time Temperature Precipitation Wind Pressure Humidity
    00:00 -8°C° 0 mm 2 mps 602 mmHg 92%
    01:00 -8°C° 0 mm 2 mps 602 mmHg 91%
    02:00 -8°C° 0 mm 2 mps 601 mmHg 90%
    03:00 -8°C° 0 mm 2 mps 601 mmHg 88%
    04:00 -9°C° 0 mm 2 mps 601 mmHg 87%
    05:00 -9°C° 0 mm 2 mps 601 mmHg 85%
    06:00 -9°C° 0 mm 2 mps 601 mmHg 84%
    07:00 -8°C° 0 mm 1 mps 601 mmHg 82%
    08:00 -7°C° 0 mm 2 mps 602 mmHg 80%
    09:00 -5°C° 0 mm 2 mps 603 mmHg 78%
    10:00 -3°C° 0 mm 2 mps 604 mmHg 77%
    11:00 -3°C° 0 mm 2 mps 604 mmHg 78%
    12:00 -3°C° 0 mm 2 mps 604 mmHg 79%
    13:00 -2°C° 0 mm 2 mps 604 mmHg 81%
    14:00 -2°C° 0 mm 2 mps 604 mmHg 81%
    15:00 -3°C° 0 mm 2 mps 604 mmHg 80%
    16:00 -3°C° 0 mm 2 mps 603 mmHg 80%
    17:00 -5°C° 0 mm 2 mps 603 mmHg 79%
    18:00 -6°C° 0 mm 2 mps 603 mmHg 77%
    19:00 -7°C° 0 mm 1 mps 602 mmHg 75%
    20:00 -7°C° 0 mm 1 mps 603 mmHg 69%
    21:00 -8°C° 0 mm 2 mps 603 mmHg 63%
    22:00 -8°C° 0 mm 2 mps 603 mmHg 58%
    23:00 -8°C° 0 mm 2 mps 603 mmHg 56%

    24 February, Sunday

    Time Temperature Precipitation Wind Pressure Humidity
    00:00 -8°C° 0 mm 2 mps 603 mmHg 53%
    01:00 -7°C° 0 mm 2 mps 603 mmHg 51%
    02:00 -7°C° 0 mm 2 mps 603 mmHg 51%
    03:00 -7°C° 0 mm 2 mps 603 mmHg 52%
    04:00 -7°C° 0 mm 2 mps 603 mmHg 52%
    05:00 -7°C° 0 mm 2 mps 603 mmHg 53%
    06:00 -7°C° 0 mm 2 mps 603 mmHg 54%
    07:00 -7°C° 0 mm 2 mps 603 mmHg 55%
    08:00 -3°C° 0 mm 1 mps 604 mmHg 60%
    09:00 -1°C° 0 mm 1 mps 605 mmHg 65%
    10:00 +1°C° 0 mm 1 mps 606 mmHg 69%
    11:00 +1°C° 0 mm 1 mps 606 mmHg 74%
    12:00 +2°C° 0 mm 1 mps 606 mmHg 79%
    13:00 +2°C° 0 mm 1 mps 606 mmHg 84%
    14:00 +2°C° 0 mm 1 mps 605 mmHg 85%
    15:00 +2°C° 0 mm 1 mps 605 mmHg 86%
    16:00 +1°C° 0 mm 1 mps 605 mmHg 88%
    17:00 0°C° 0 mm 1 mps 605 mmHg 84%
    18:00 -2°C° 0 mm 1 mps 604 mmHg 81%
    19:00 -3°C° 0 mm 1 mps 604 mmHg 77%
    20:00 -3°C° 0 mm 1 mps 604 mmHg 77%
    21:00 -3°C° 0 mm 1 mps 604 mmHg 77%
    22:00 -3°C° 0 mm 1 mps 604 mmHg 76%
    23:00 -3°C° 0 mm 1 mps 604 mmHg 77%

    25 February, Monday

    Time Temperature Precipitation Wind Pressure Humidity
    00:00 -3°C° 0 mm 1 mps 604 mmHg 78%
    01:00 -3°C° 0 mm 1 mps 604 mmHg 79%
    02:00 -3°C° 0 mm 1 mps 604 mmHg 79%
    03:00 -3°C° 0 mm 1 mps 604 mmHg 79%
    04:00 -3°C° 0 mm 1 mps 604 mmHg 78%
    05:00 -3°C° 0 mm 1 mps 604 mmHg 78%
    06:00 -4°C° 0 mm 1 mps 604 mmHg 78%
    07:00 -4°C° 0 mm 1 mps 604 mmHg 78%
    08:00 -4°C° 0 mm 2 mps 604 mmHg 80%
    09:00 -2°C° 0 mm 2 mps 605 mmHg 83%
    10:00 -1°C° 0 mm 2 mps 605 mmHg 85%
    11:00 +1°C° 0 mm 2 mps 605 mmHg 87%
    12:00 +1°C° 0 mm 2 mps 605 mmHg 89%
    13:00 +1°C° 0 mm 2 mps 605 mmHg 92%
    14:00 +1°C° 0 mm 2 mps 604 mmHg 92%
    15:00 -1°C° 0 mm 2 mps 604 mmHg 92%
    16:00 -1°C° 0 mm 2 mps 603 mmHg 93%
    17:00 -2°C° 0 mm 2 mps 603 mmHg 93%
    18:00 -4°C° 0 mm 2 mps 603 mmHg 93%
    19:00 -5°C° 0 mm 2 mps 602 mmHg 93%
    20:00 -6°C° 0 mm 2 mps 603 mmHg 86%
    21:00 -4°C° 0 mm 1 mps 603 mmHg 78%
    22:00 -4°C° 0 mm 1 mps 603 mmHg 71%
    23:00 -6°C° 0 mm 2 mps 603 mmHg 68%

    26 February, Tuesday

    Time Temperature Precipitation Wind Pressure Humidity
    00:00 -6°C° 0 mm 2 mps 603 mmHg 64%
    01:00 -7°C° 0 mm 2 mps 602 mmHg 61%
    02:00 -7°C° 0 mm 2 mps 602 mmHg 57%
    03:00 -7°C° 0 mm 2 mps 602 mmHg 53%
    04:00 -7°C° 0 mm 2 mps 601 mmHg 49%
    05:00 -7°C° 0 mm 2 mps 601 mmHg 47%
    06:00 -7°C° 0 mm 2 mps 601 mmHg 44%
    07:00 -6°C° 0 mm 2 mps 601 mmHg 42%
    08:00 -4°C° 0 mm 2 mps 602 mmHg 47%
    09:00 0°C° 0 mm 1 mps 603 mmHg 51%
    10:00 +2°C° 0 mm 1 mps 604 mmHg 56%
    11:00 +2°C° 0 mm 1 mps 603 mmHg 58%
    12:00 +1°C° 0 mm 2 mps 603 mmHg 60%
    13:00 +2°C° 0 mm 2 mps 603 mmHg 62%
    14:00 +2°C° 0 mm 2 mps 602 mmHg 64%
    15:00 +2°C° 0 mm 1 mps 602 mmHg 66%
    16:00 +2°C° 0 mm 1 mps 602 mmHg 68%
    17:00 0°C° 0 mm 1 mps 601 mmHg 62%
    18:00 -4°C° 0 mm 2 mps 601 mmHg 57%
    19:00 -5°C° 0 mm 2 mps 600 mmHg 51%
    20:00 -5°C° 0 mm 2 mps 600 mmHg 47%
    21:00 -5°C° 0 mm 2 mps 600 mmHg 43%
    22:00 -5°C° 0 mm 2 mps 600 mmHg 39%
    23:00 -5°C° 0 mm 2 mps 600 mmHg 38%
    Show more